Flag Weather past 2 weeks in Haltern am See, North Rhine-Westphalia, Germany

Now
41 °F

Passing clouds.


Feels Like: 41 °F
Forecast: 37 / 47 °F
Wind: 2 mph from North

Location: Dortmund / Wickede

Current Time: Nov 26, 2014 at 9:33:03 PM

Latest Report: Nov 26, 2014 at 9:20 PM


Visibility: N/A

Pressure: 29.92 "Hg

Humidity: 81%

Dew point: 36 °F

Location of Haltern am SeeLocation

Historic Weather in Haltern am See — Graph

°F

Haltern am See temperature yesterday

Maximum temperature yesterday: 46 °F (at 1:20 PM)
Minimum temperature yesterday: 32 °F (at 5:50 AM)
Average temperature yesterday: 39 °F

Past Weeks' High & Low Weather Summary

 TemperatureHumidityPressure
High61 °F (Nov 23, 11:20 AM)93% (Nov 13, 7:20 AM)30.33 "Hg (Nov 13, 7:20 AM)
Low32 °F (Nov 21, 5:20 AM)55% (Nov 23, 11:20 AM)29.50 "Hg (Nov 16, 12:50 PM)
Average46 °F81%29.94 "Hg
* Reported Nov 11 8:20 PM — Nov 26 8:20 PM, Haltern am See, Weather by CustomWeather, © 2014

Note: Actual official high and low records may vary slightly from our data, if they occured in-between our weather recording intervals... More about our weather records

Advertising

Haltern am See weather history for previous 24 hours

 ConditionsComfort  
Time TempWeatherWind HumidityBarometerVisibility
8:20 PM
Nov 26
41 °FClear.2 mph81%29.92 "Hg10 mi
7:50 PM41 °FPartly cloudy.5 mph81%29.92 "HgN/A
7:20 PM41 °FPassing clouds.5 mph81%29.92 "HgN/A
6:50 PM41 °FLight rain. Passing clouds.3 mph81%29.92 "HgN/A
6:20 PM41 °FLight rain. Passing clouds.5 mph76%29.95 "HgN/A
5:50 PM41 °FPartly cloudy.5 mph70%29.95 "HgN/A
5:20 PM41 °FClear.6 mph70%29.95 "Hg10 mi
4:50 PM41 °FClear.No wind70%29.95 "Hg10 mi
4:20 PM43 °FSunny.6 mph66%29.95 "Hg10 mi
3:50 PM43 °FSunny.8 mph66%29.95 "Hg10 mi
3:20 PM43 °FSunny.7 mph71%29.95 "Hg10 mi
2:50 PM41 °FSunny.6 mph81%29.95 "Hg10 mi
2:20 PM41 °FPassing clouds.7 mph76%29.98 "HgN/A
1:50 PM41 °FSunny.8 mph76%29.98 "Hg10 mi
1:20 PM41 °FSunny.8 mph76%29.98 "Hg10 mi
12:50 PM41 °FPassing clouds.7 mph76%30.01 "HgN/A
12:20 PM39 °FSunny.9 mph75%30.01 "Hg10 mi
11:50 AM39 °FPassing clouds.10 mph75%30.01 "HgN/A
11:20 AM39 °FPassing clouds.8 mph75%30.04 "HgN/A
10:20 AM37 °FSunny.9 mph81%30.04 "Hg10 mi
9:50 AM36 °FSunny.7 mph81%30.04 "Hg10 mi
9:20 AM36 °FSunny.7 mph81%30.04 "Hg10 mi
8:50 AM34 °FSunny.7 mph87%30.04 "Hg10 mi
8:20 AM32 °FSunny.6 mph87%30.04 "Hg10 mi
7:50 AM32 °FPassing clouds.5 mph87%30.04 "HgN/A
7:20 AM34 °FClear.6 mph87%30.04 "Hg10 mi
6:50 AM32 °FClear.7 mph93%30.07 "Hg10 mi
6:20 AM32 °FClear.6 mph87%30.07 "Hg10 mi
5:50 AM34 °FClear.7 mph87%30.07 "Hg10 mi
5:20 AM34 °FClear.8 mph87%30.07 "Hg10 mi
10:50 PM
Nov 25
36 °FClear.8 mph87%30.15 "Hg10 mi
10:20 PM36 °FClear.8 mph87%30.15 "Hg10 mi
9:50 PM36 °FClear.8 mph87%30.18 "Hg10 mi
9:20 PM36 °FClear.8 mph93%30.18 "Hg10 mi
Weather by CustomWeather, © 2014

See weather overviewHow to use our weather pages